Timeline UpdatesTrip UpdatesNews PostsPvt PostsTravel TipsAdmin PostsConv PostsFollowed PostsChat RequestsBlog PostsPNR Posts

Disclaimer
Search
 
 
Tue Sep 2, 2014 19:35:40 ISTHomeTrainsΣChainsAtlasPNRForumGalleryNewsFAQTripsMembersLoginFeedback
No Recent News for this Train
Other Trains in the News **new
Latest...
.
Thu Feb 21, 2013 (12:59PM)
⇐ Return Journey: Train# 15904

15903/Dibrugarh-Chandigarh Weekly Express

Time-Table HAS CHANGED.
Today (12:29AM)
Change Departure Station:
Change Arrival Station:
Post a Train Travel TipPost a Train Travel Tip **new
Post a Comment/Question/Picture/VideoPost a Comment/Question/Picture/Video
Pantry/Catering
✓ Pantry Car Avbl
✓ Catering Avbl
RSA - Rake Sharing
.
Rake/Coach Composition
LOCO-SLR-GS-GS-S1-S2-S3-S4-S5-S6-S7-S8-S9-S10-S11-S12-S13-PC-A1-B1-B2-B3-B4-GS-SLR
Loco
NGC WDM3a
News    PNR    Forum    Time-Table    Availability    Fare Chart    Map    Arr/Dep History    Trips    Gallery    ΣChains    X/O    Timeline    
Travel Time: 12h 5m    8 halts    Distance: 605 km    Avg Speed: 50 km/hr
Type: Mail/Express
Zone: NFR/Northeast Frontier
Departs @ 08:40
Platform# 1
 M     
Dibrugarh/DBRG 
Arrives @ 20:45
Platform# ???
 M     
Rangiya Junction/RNY 

8 halts. 87 intermediate Stations between Dibrugarh and Rangiya Junction

Hide intermediate Stations  Show Old Time-Table

#CodeStation NameX/OArrivesAvgDepartsAvgHaltPFDay#KmSpeedElevZoneAddress
1DBRG»Dibrugarh (4)»  -08:40-110.039108mNFRDibrugarh 786003, Assam
1.1LHLLahoal  08:51-08:51-  16.9 39112mNFRA T Rd, Assam
1.2DKMDikomX  09:03-09:03-  115.1 39115mNFRA T Rd, Assam
1.3CHBChabua (1)  09:18-09:18-  124.7 39116mNFRChabua, Assam
1.4PNTPanitola  09:32-09:32-  133.8 39122mNFRA T Rd, Assam
2NTSKNew Tinsukia Junction (3)  09:45-09:55-10m--142.070124mNFRDist: Tinsukia, Assam
2.1SPGNSripuriagaon  09:58-09:58-  145.9 70120mNFRSripuria Junction, Assam
2.2CGFCharali  10:04-10:04-  152.0 70125mNFRMadhubon to Naoholia Rd, Assam
2.3BDTBordubi Road  10:06-10:06-  154.5 70123mNFRMadhubon to Naoholia Rd, Assam
2.4DJGDuliajan  10:09-10:09-  158.3 70123mNFRDuliajan, Assam
2.5NHKNaharkatiyaX  10:17-10:17-  167.6 70121mNFRNaharkatiya, Assam
2.6BTZBalimara  10:22-10:22-  173.4 70122mNFRBalimara, Assam
2.7NAMNamrup (2)  10:26-10:26-  178.5 70123mNFRBorhat, Assam
2.8BFDBorhat  10:31-10:31-  183.8 70118mNFRNahar Rd, Assam
2.9BRNRBaruanagar  10:35-10:35-  188.8 70115mNFRDeopani Habi, Assam
2.10SPKSapekhati  10:42-10:42-  196.7 70112mNFRMoran to Naharkatiya Rd, Assam
2.11LPTALongpatia  10:48-10:48-  1104.0 70109mNFRLongpatia, Assam
2.12BOJBhojo  10:54-10:54-  1110.6 70107mNFRBhojo Railway Station, Assam
2.13SFRSafrai  11:03-11:03-  1120.7 70101mNFRBarpothar, Assam
2.14LXALakswa  11:11-11:11-  1131.0 7098mNFRKukurachowa Gaon Rd, Assam
2.15MUGNMahutgaon  11:17-11:17-  1138.0 7099mNFRLakwa Rajgarh Road, Assam
3SLGRSimaluguri Junction (3)  11:23-11:25-2m11144.55499mNFRSimaluguri, Assam
3.1NZRNazira  11:29-11:29-  1148.2 5496mNFRNazira, Assam
3.2MZAMezenga  11:34-11:34-  1152.6 5499mNFRReboti Gaon, Assam
3.3NMTNamtiali  11:41-11:41-  1159.1 5498mNFRDhodor Ali, Assam
3.4AGIAmguri Junction (2)O  11:54-11:54-  1170.6 54104mNFRAmguri, Assam
3.5SLXSelenghatX  12:00-12:00-  1175.9 54104mNFRSelenghat, Assam
3.6LHLahing  12:07-12:07-  1182.5 54109mNFRLahing, Assam
3.7NCHNakachari (2)  12:13-12:13-  1188.2 54115mNFRNakachari, Assam
3.8MEGMeleng  12:19-12:19-  1193.0 54121mNFRmariani, Assam
4MXNMariani Junction (4)X  12:25-12:35-10m11198.742117mNFRDist. Jorhat Pin-785634, Assam
4.1KQYKharikatiaX  12:44-12:44-  1204.6 42107mNFRDhodar Ali, Assam
4.2TTBTitabar (1)X  12:53-12:53-  1211.1 4298mNFRTitabor, Assam
4.3CFGChakiting  13:09-13:09-  1222.4 4297mNFRChakiting, Assam
4.4KXLKamarbandha Ali  13:17-13:17-  1227.7 4299mNFRK B Rd, Assam
5FKGFurkating Junction (2)  13:30-13:32-2m--1236.773 NFRK B Rd, Assam
5.1OTNOating  13:35-13:35-  1240.9 73112mNFRTirual Gaon, Assam
5.2JMIJamguriX  13:40-13:40-  1246.4 73104mNFROating Grant, Assam
5.3BHGNBhilgaon (1)  13:46-13:46-  1253.2 73113mNFRAsian Highway 1, Assam
5.4BXPBarpathar  13:52-13:52-  1261.1 73115mNFRRailway Station, Assam
5.5SZRSarupathar (2)  14:00-14:00-  1270.6 73123mNFRSarupathar Road Thana Rd, Assam
5.6NJNNaojan (1)  14:07-14:07-  1279.0 73128mNFRNo.1 Kori Gaon, Assam
5.7CJAChongajan  14:13-14:13-  1286.6 73133mNFRNaojan Crossing Gate Road, Assam
5.8BXJBokajan (2)  14:18-14:18-  1292.7 73138mNFRBokajan, Assam
5.9KHKTKhotkhoti  14:25-14:25-  1301.0 73145mNFRKhotkhoti Railway Station, Assam
6DMVDimapur (3)  14:35 14:30-14:40 14:35-5m--1306.959153mNFRDimapur, Nagaland
6.1RXRXRangapahar Crossing  14:39-14:39-  1311.2 59152mNFRArmy Supply Road, Nagaland
6.2RXRRangapahar  14:41-14:41-  1313.2 59159mNFRRangapahar, Nagaland
6.3DSRDhansiri  14:54-14:54-  1325.5 59179mNFRDhansiri, Assam
6.4DLDEDaldali  15:03-15:03-  1334.1 59194mNFRDiphu, Assam
7DPUDiphu (2)  15:16 15:13-15:17 15:14-1m--1344.238180mNFRDiphu, Assam
7.1NLNNailalung  15:29-15:29-  1353.4 38222mNFRTV Centre Road, Assam
7.2LCTLangcholiet  15:44-15:44-  1363.0 38165mNFRTV Centre Road, Assam
7.3BRLFBar Langfer  15:54-15:54-  1369.6 38154mNFRDist: Karbi Anglong, Assam
8LMGLumding Junction (5)X  16:05-16:15-10m--1376.354142mNFRLumding, Assam
8.1LMGSLumding South  16:17-16:17-  1378.0 54133mNFRLumding South, Assam
8.2PKBPatharkhola S  16:25-16:25-  1384.9 54124mNFRNH54, Assam
8.3LKGLamsakhang  16:31-16:31-  1390.9 54106mNFRLamsakhan Rd, Assam
8.4HWXHabaipur  16:43-16:43-  1401.5 5493mNFRStation Rd, Assam
8.5LKALanka (2)  16:50-16:50-  1407.5 5489mNFRLanka, Assam
8.6DHRYDhalpukhuriX  16:58-16:58-  1414.8 5484mNFRHojai Rd, Assam
8.7HJIHojai (2)  17:05-17:05-  1421.5 5478mNFRHojai Rd. Ph:- 03674-252136., Assam
8.8JGJNJugijanX  17:12-17:12-  1428.0 5473mNFRNational Highway 36, Assam
8.9JMKJamunamukh  17:23-17:23-  1438.0 5470mNFRNational Highway 36, Assam
8.10KWMKampur  17:35-17:35-  1448.8 5468mNFRKampur, Assam
8.11LPNLaopaniX  17:44-17:44-  1457.2 5463mNFRNiz-Jarabari, Assam
8.12CPKChaparmukh Junction (3)X  17:54-17:54-  1466.0 5465mNFRChaparmukh. Dist. Nagaon. Changing point for HBN/SHTT, Assam
8.13TGEThekeraguri  18:03-18:03-  1474.0 5462mNFRMorakolong, Assam
8.14DMLDharamtul  18:11-18:11-  1481.3 5459mNFRDharamtul, Assam
8.15SNBRSonuabary  18:18-18:18-  1487.2 5457mNFRBhalukaguri, Assam
8.16AJREAujari  18:24-18:24-  1492.5 54 NFRJagiroad, Assam
8.17JIDJagi Road (2)  18:32-18:32-  1500.0 5462mNFRJagiroad, Assam
8.18BRHUBarahuX  18:38-18:38-  1505.9 5459mNFRGuripathar, Assam
8.19KKETKamrup Khetri  18:45-18:45-  1511.8 5462mNFRKhetri, Assam
8.20TTLATeteliaX  18:52-18:52-  1517.9 5459mNFRHelagog, Assam
8.21DGUDigaruO  18:58-18:58-  1523.5 5458mNFRDigaru, Assam
8.22PNBPanbari (2)  19:06-19:06-  1530.7 5458mNFRBurha Mayang Par, Assam
8.23TKCThakurkuchi (2)  19:14-19:14-  1537.9 5454mNFRHatisila, Assam
8.24PHIPanikhaiti (2)  19:20-19:20-  1543.2 5459mNFRChandrapur Rd, Assam
8.25NNGENarangi (2)  19:26-19:26-  1548.5 5458mNFRPanikhaiti, Assam
8.26NMYNoonmatiX  19:29-19:29-  1551.4 5461mNFRGuwahati, Assam
8.27NGCNew Guwahati  19:30-19:30-  1552.9 5461mNFRGuwahati, Assam
9GHYGuwahati (7)  19:45 19:35-20:00-15 25m--1557.16460mNFRGuwahati, Assam
9.1KYQKamakhya Junction (4)  20:07-20:07-  1564.0 6455mNFRDist - KAMRUP, Assam
9.2AGTAgthoriX  20:13-20:13-  1570.9 6450mNFRGuwahati, Assam
9.3CGSChangsari  20:21-20:21-  1578.9 6454mNFRChangsari, Assam
9.4BIZBaihata  20:30-20:30-  1589.3 6456mNFRKamrup, Assam
9.5KDKNKendukana  20:35-20:35-  1594.6 6455mNFRNational HIghway 31, Assam
10RNY•Rangiya Junction (5)•  20:50 20:45-21:00 20:55-10m--1604.74558mNFRRangia, Assam
10.1GOEGhograpur  21:05-21:05-  1612.5 4555mNFRNational HIghway 31, Assam
10.2NLVNalbari  21:17-21:17-  1621.2 4554mNFRNalbari, Assam
10.3KTCHKaithalkuchi  21:30-21:30-  1631.3 4550mNFRNational HIghway 31, Assam
10.4TIHUTihu  21:40-21:40-  1638.8 4550mNFRBarpeta, Assam
10.5NSRHNiz Sariha Halt  21:47-21:47-  1643.7 4549mNFRBarpeta, Assam
10.6PBLPathsala  21:53-21:53-  1648.3 4547mNFRPathsala Town, Assam
10.7SPQSorupeta  22:06-22:06-  1658.3 4547mNFRBarpeta, Assam
10.8GSAGuagachha  22:14-22:14-  1664.2 4545mNFRBorpeta, Assam
10.9BPRDBarpeta Road  22:21-22:21-  1669.6 4549mNFRHowli, Assam
10.10SBESorbhog Junction  22:32-22:32-  1677.4 4551mNFRDist: Barpeta, Assam
10.11PTLDPatiladaha  22:44-22:44-  1686.3 4549mNFRNational HIghway 31, Assam
10.12BJFBijni  22:57-22:57-  1696.5 4554mNFRDist: Chirang, Assam
10.13CPQChaprakata  23:10-23:10-  1705.9 4556mNFRNational Highway 31C, Assam
10.14BNGNBongaigaon (3)  23:17-23:17-  1711.2 4560mNFRBongaigaon, Assam
11NBQNew Bongaigaon Junction (4)X  23:20-23:30-10m--1713.66258mNFR783381., Assam
11.1NBQYNew Bongaigaon Yard  23:33-23:33-  1717.0 6258mNFRBongaigaon, Assam
11.2DTXDangtal  23:34-23:34-  1718.0 6256mNFRNational Highway 31C, Assam
11.3BSGNBasugaon (2)  23:42-23:42-  1725.5 6255mNFRNational Highway 31C, Assam
11.4SLKXSalakatiX  23:48-23:48-  1732.1 6253mNFRNational Highway 31C, Assam
12KOJKokrajhar (3)  23:57-23:58-1m--1741.58846mNFR03661-270618, Assam
12.1FKMFakiragram Junction (4)  00:05-00:05-  2751.4 8844mNFR03661-283454, Assam
12.2CROAChautara (3)  00:12-00:12-  2762.6 8844mNFRChautara, Assam
12.3GOGHGossaigaon Hat (3)  00:21-00:21-  2774.7 88 NFRKokrajhar, Assam
12.4SRPBSrirampur Assam (2)  00:26-00:26-  2781.9 8850mNFRDist - Dhubri, Assam
12.5JOQJorai (3)X  00:33-00:33-  2792.0 8853mNFRDist - Coachbehar, West Bengal
12.6KAMGKamakhyaguri (3)  00:38-00:38-  2800.2 8853mNFRdist : Alipurduar, West Bengal
12.7SMTASamuktala Road (3)  00:45-00:45-  2809.8 8848mNFRdist : Alipurduar, West Bengal
12.8SLBSSalsala BariX  00:48-00:48-  2815.2 8850mNFRDist : ALIPURDUAR, West Bengal
13NOQNew Alipurduar (2)  00:53 00:52-00:58 00:57-5m--2820.34548mNFRDist - Alipurduar - 736121, West Bengal
13.1NBSNew Baneswar (2)  01:12-01:12-  2831.2 4544mNFRDist - Coachbehar, West Bengal
14NCBNew Cooch Behar Junction (5)  01:25 01:22-01:30 01:27-5m--2839.05747mNFRDist : Cooch Behar-736101, West Bengal
14.1PQZPundibari (1)  01:38-01:38-  2849.1 5753mNFRDist - Coochbehar, West Bengal
14.2SJRRSajherpar (2)  01:42-01:42-  2853.6 5754mNFRDist : Cooch Behar, West Bengal
14.3GDXGhoksadanga (2)  01:50-01:50-  2861.1 5758mNFRDist : Cooch Behar, West Bengal
14.4GUZGumanihat (2)  01:56-01:56-  2866.4 5760mNFRDist : Cooch Behar, West Bengal
14.5GMZGumanihat (2)X  01:56-01:56-  2866.4 5760mNFRDist : Coachbehar, West Bengal
14.6FLKFalakata (3)  02:07-02:07-  2876.8 5767mNFRDist - Alipurduar, West Bengal
14.7SXXSalbari (2)  02:17-02:17-  2885.8 5769mNFRDist - jalpaiguri, West Bengal
14.8KLGRKolai Gram (2)  02:24-02:24-  2892.4 5775mNFRDist : Jalpaiguri, West Bengal
14.9DQGDhupguri (2)  02:31-02:31-  2899.2 5775mNFRDist - Jalpaiguri, West Bengal
14.10ATMAltagram (2)  02:38-02:38-  2905.9 5785mNFRDist - Jalpaiguri, West Bengal
14.11BYXABetgara (2)  02:47-02:47-  2914.6 5789mNFRDIST - Jalpaiguri, West Bengal
14.12NMXNew Maynaguri (2)X  02:52-02:52-  2919.4 5786mNFRDist - Jalpaiguri, West Bengal
14.13NQHNew Domohani (2)  02:56-02:56-  2923.3 5784mNFRDist - Jalpaiguri, West Bengal
14.14JPEJalpaiguri Road (2)  03:04-03:04-  2931.0 5789mNFRdist - Jalpaiguri 735102, West Bengal
14.15RQJRaninagar Jalpaiguri Junction (3)X  03:12-03:12-  2938.1 5791mNFRDIST - Jalpaiguri, West Bengal
14.16BLKBelakoba (2)X  03:21-03:21-  2946.4 5799mNFRDist - jalpaiguri, West Bengal
14.17ABFCAmbari Falakata (2)  03:31-03:31-  2955.8 57105mNFRdist - jalpaiguri 735201, West Bengal
15NJPNew Jalpaiguri Junction (8)  03:40-03:55-15m32964.581114mNFRCity-Siliguri . Dist-Jalpaiguri, West Bengal
15.1RNIRangapani (2)  04:01-04:01-  2971.9 81114mNFRSILIGURI Dist - Darjeeling, West Bengal
15.2NJBNijbari  04:06-04:06-  2978.8 81104mNFRFulbari Ghoshpukur Bypass, West Bengal
15.3CATChattar Hat (2)X  04:11-04:11-  2985.9 8191mNFRChattar, West Bengal
15.4DMZDumdangi  04:18-04:18-  2995.0 8186mNFRHaftia Rd, West Bengal
15.5TMHTin Mile Hat  04:24-04:24-  21003.8 8174mNFRTin Mile, West Bengal
15.6MXJMangurjan  04:29-04:29-  21010.0 8169mNFRMangurjan, West Bengal
15.7DBQDhulabari  04:34-04:34-  21016.4 8168mNFRKishanganj, Bihar
15.8AUBAluabari Road (2)  04:37-04:37-  21021.2 810mNFRDist - uttar Dinajpur, West Bengal
15.9GEORGunjariaX  04:43-04:43-  21029.2 8164mNFRNational Highway 31, West Bengal
15.10GILGaisal (3)  04:47-04:47-  21034.9 8162mNFRNational Highway 31, West Bengal
15.11PJPPanjipara (3)X  04:54-04:54-  21043.6 8155mNFRNational Highway 31, West Bengal
16KNEKishanGanj (3)  05:01 05:00-05:03 05:02-2m--21051.84252mNFRKishanganj, Bihar
16.1THEDTauheed  05:05-05:05-  21054.0 4252mNFRKishanganj, West Bengal
16.2HWRHatwar (2)  05:14-05:14-  21060.2 4246mNFRNational Highway 31, West Bengal
16.3KKAKanki (3)X  05:22-05:22-  21065.6 4247mNFRKanki, West Bengal
16.4SJKLSurja Kamal (2)  05:33-05:33-  21073.3 4244mNFRNational Highway 31, West Bengal
16.5DLKDalkhola (3)X  05:43-05:43-  21080.3 4244mNFRDalkola, West Bengal
16.6TETATelta (2)  05:55-05:55-  21088.5 4240mNFRRupauli, Bihar
16.7AHLAjharailX  05:59-05:59-  21091.3 4237mNFRNational Highway 34, West Bengal
16.8SUDSudhani (2)  06:08-06:08-  21097.5 4238mNFRState Highway 65, Bihar
16.9SJGMSanjay Gram  06:12-06:12-  21100.9 4234mNFRSanjay Gram, West Bengal
16.10BOEBarsoi Junction (3)X  06:25-06:25-  21109.4 4237mNFRdist- katihar, Bihar
16.11MFAMukuria Junction (2)X  06:31-06:31-  21113.7 4232mNFRMukuria, Bihar
16.12SRISalmari (2)  06:38-06:38-  21118.9 4236mNFRSalmari, Bihar
16.13MENPMeenapur (1)X  06:43-06:43-  21122.5 4238mNFRMeenapur, Bihar
16.14JAUJhaua (1)  06:47-06:47-  21125.2 4235mNFRJhaua, Bihar
16.15BHNPBishanpur Halt (1)X  06:52-06:52-  21128.2 4234mNFRKATIHAR, Bihar
16.16SISonalli (2)  06:56-06:56-  21131.3 4235mNFRSonalli, Bihar
16.17GRRGorphar (1)  07:03-07:03-  21136.4 4234mNFRGorphar Halt, Bihar
16.18DNQDandkhora (2)  07:08-07:08-  21139.6 4234mNFRph- 06452-252274, Bihar
16.19NYTNayatola (1)  07:14-07:14-  21143.8 4234mNFRKatihar, Bihar
17KIRKatihar Junction (7)XO  07:20-07:30-10m221148.07135mNFRKatihar 854105, Bihar
17.1SMOSemapurO  07:40-07:40-  21159.6 7135mECRKatihar, Bihar
17.2CRRKaragola Road  07:49-07:49-  21170.3 7136mECRLachhmipur, Bihar
17.3BRZRBarari Bazar  07:51-07:51-  21173.1 7134mECRMarghia, Bihar
17.4BKHRBakhri  07:54-07:54-  21175.8 7135mECRBakhri, Bihar
17.5KUEKurselaX  08:03-08:03-  21187.3 7131mECRNH 31, Bihar
17.6KTRHKatareahX  08:10-08:10-  21194.7 710mECRKumadpur, Bihar
18NNANaugachia (3)  08:30 08:19-08:31 08:20-1m221205.86037mECRBhagalpur, Bihar
18.1KHQKharik (3)  08:28-08:28-  21213.7 6038mECRKharik, Bihar
18.2BIGHBagrigram Halt (1)  08:31-08:31-  21216.8 6038mECRBagri, Bihar
18.3THBThana Bihpur Junction (3)  08:36-08:36-  21221.7 6039mECRThana Bihpur, Bihar
18.4NNRNarayanpur (2)  08:44-08:44-  21229.3 6039mECRNarayanpur, Bihar
18.5BRKBBharat Khand (1)  08:49-08:49-  21234.7 6034mECRBharat Khand, Bihar
18.6BRKDBharat Khand  08:49-08:49-  21234.8 6035mECRNational Highway 31, Bihar
18.7PSRPasraha (3)  08:55-08:55-  21240.9 6041mECRPasraha, Bihar
18.8GAIGauchhari (3)  09:04-09:04-  21249.2 6040mECRGauchhari, Bihar
18.9MSKMahes Khunt (2)X  09:08-09:08-  21253.3 6037mECRMaheshkhunt, Bihar
18.10CDBNChedhabanni Halt (2)  09:13-09:13-  21258.9 6042mECRChedhabanni, Bihar
18.11MNEMansi Junction (4)  09:18-09:18-  21263.7 6043mECRMansi, Bihar
19KGGKhagaria Junction (3)X  09:41 09:27-09:42 09:28-1m--21272.74043mECRKhagaria, Bihar
19.1UMNRUmeshnagar (3)  09:38-09:38-  21279.6 4041mECRNational Highway 31, Bihar
19.2SKJSahibpur Kamal Junction (2)  09:46-09:46-  21285.1 4041mECRShahpur Kamal, Bihar
19.3SANHSanha Halt (2)X  09:52-09:52-  21288.6 4042mECRSanha, Bihar
19.4LKNLakhminia (3)X  10:01-10:01-  21294.8 4045mECRBegusarai, Bihar
19.5DPLDanauli Phulwaria (3)  10:09-10:09-  21300.1 4042mECRDanauli Phlwria, Bihar
19.6LAKLakho (1)  10:16-10:16-  21305.2 4044mECRLakho, Bihar
19.7BGSBegusarai (3)  10:27-10:27-  21312.6 4046mECRBegusarai, Bihar
19.8SHHTSinghaul Halt (2)  10:33-10:33-  21316.4 4048mECRBegusarai, Bihar
19.9TILTilrath (2)X  10:37-10:37-  21319.4 4046mECRNH 31, Bihar
19.10BEHTBihat Halt (2)  10:43-10:43-  21323.2 4046mECRBihat Halt, Bihar
20BJUBarauni Junction (9)  10:50-11:00-10m--21327.95549mECRBegusarai, Bihar
20.1BUJBarauni Flag (2)X  11:03-11:03-  21330.6 5549mECRDistt: Begusarai, Bihar
20.2TGATeghra (3)X  11:08-11:08-  21335.3 5548mECRBegusarai, Bihar
20.3BCABachwara Junction (3)  11:18-11:18-  21344.3 5549mECRBegusarai, Bihar
20.4STJTSathajagat (2)  11:25-11:25-  21350.7 5549mECRSathajagat, Bihar
20.5DSSDalsingh Sarai (2)  11:30-11:30-  21355.3 55 ECR06278-221238, Bihar
20.6BSRABasarhia Halt (2)  11:34-11:34-  21359.5 5552mECRBasaria, Bihar
20.7NAZJNazirGanj (2)  11:38-11:38-  21363.1 5551mECRNazirGanj, Bihar
20.8UJPUjiarpur (2)  11:45-11:45-  21369.4 5551mECRSamastipur, Bihar
20.9BLRIBelari Halt  11:50-11:50-  21373.9 5551mECRMalti, Bihar
21SPJSamastipur Junction (9)  11:55-12:00-5m--21378.55955mECRSamastipur, Bihar
21.1KPGMKarpurigram (3)X  12:06-12:06-  21384.7 5951mECRState Highway 49, Bihar
21.2KRBPKhudiram B Pusa (2)  12:14-12:14-  21392.1 5952mECRDistt. Samastipur, Bihar
21.3VBHVishnupur Bathua Halt  12:18-12:18-  21395.8 5955mECRTajpur - Garhia - Pusa Road, Bihar
21.4DUBHDubaha (2)  12:21-12:21-  21399.4 5955mECRDubha Station, Bihar
21.5DOLDholi (2)  12:27-12:27-  21405.5 59 ECRDistt. Muzaffarpur, Bihar
21.6SIHOSiho (2)  12:34-12:34-  21412.3 5953mECRNational Highway 28, Bihar
21.7SLTSilaut (2)X  12:42-12:42-  21420.1 5957mECRMuzaffarpur, Bihar
21.8NRPANarayanpur Anant (3)  12:48-12:48-  21425.8 5956mECRMuzaffarpur, Bihar
22MFPMuzaffarpur Junction (6)  12:48 12:53-12:53 12:58-5m321430.65657mECRMuzaffarpur, Bihar
22.1RDRam Dayalu Nagar (3)  13:05-13:05-  21436.6 5656mECRMuzaffarpur, Bihar
22.2TURTurki (2)  13:13-13:13-  21444.3 5655mECRTurki, Bihar
22.3KHIKurhani (2)  13:20-13:20-  21450.7 5656mECRKurhani, Bihar
22.4GRLGoraul (2)  13:26-13:26-  21456.5 5657mECRVAISHALI, Bihar
22.5BNPTBenipatti Pirapur (1)X  13:28-13:28-  21458.4 5655mECRGhojaul Rd, Bihar
22.6BNRBhagwanpur (2)  13:35-13:35-  21464.8 5660mECRBhagwanpur, Bihar
22.7BTHLBithauli (1)O  13:40-13:40-  21469.4 5658mECRVaishali, Bihar
22.8SAISarai (1)X  13:45-13:45-  21473.8 5654mECRVaishali, Bihar
22.9GWHGhoshawar (1)  13:51-13:51-  21479.9 5654mECRDaulatpur Deoria urf Daulatpur, Bihar
23HJPHajipur Junction (3)X  13:49 13:56-13:50 13:57-1m--21484.43355mECR06224-272230, Bihar
24SEESonpur Junction (4)X  14:00 14:07-14:05 14:12-5m--21489.94256mECRSaran, Bihar
24.1PMUParmanandpur (2)X  14:22-14:22-  21496.6 4256mECRNational Highway 19, Bihar
24.2NYONayagaon (2)  14:28-14:28-  21501.2 4253mECRNayagaon Sarai, Bihar
24.3STLRSitalpur (2)X  14:39-14:39-  21508.9 4257mECRSitalpur, Bihar
24.4DGADighwara (2)  14:45-14:45-  21513.1 4260mECR06158-281240, Bihar
24.5AABHAmbika Bhawani Halt (1)  14:51-14:51-  21517.0 4259mECRNH 19, Bihar
24.6ATNRAwatarnagar (2)  14:54-14:54-  21518.9 4256mECRNH 19, Bihar
24.7PPDAPanchpatia Deoria Halt (1)  14:57-14:57-  21521.1 4257mECRNH 19, Bihar
24.8BAGLBaragopal (2)  15:01-15:01-  21523.9 4257mECRSH 46, Bihar
24.9DRIDumri Juara (2)  15:07-15:07-  21528.0 4257mECRSaran, Bihar
24.10GJHGoldinganj (2)X  15:14-15:14-  21532.8 4258mECRChapra Patna Highway, Bihar
24.11CIChhapra Kacheri (3)  15:27-15:27-  21541.8 4257mNERChhapra, Bihar
25CPRChhapra Junction (6)  15:30-15:45-15m--21544.08258mNERDistt: Saran, Bihar
25.1TKVRTeknewas (2)  15:48-15:48-  21548.3 8258mNERSaran, Bihar
25.2KPSKopa Samhota (2)  15:53-15:53-  21554.6 8269mNERKopa Samhota Station Rd, Bihar
25.3DDPDaudpur (2)  15:59-15:59-  21563.3 8259mNERChhapra, Bihar
25.4EKMAEkma (3)X  16:06-16:06-  21571.9 8264mNERSaran, Bihar
25.5MHRNMahendranath Halt (2)  16:09-16:09-  21577.2 8263mNERMahendrana, Uttar Pradesh
25.6CWChainwa (2)X  16:11-16:11-  21579.2 8263mNERSiwan, Bihar
25.7DDADuraundha Junction (3)  16:17-16:17-  21587.4 8264mNERDistt: Siwan, Bihar
25.8PCKPachrukhi (2)  16:24-16:24-  21596.9 8267mNERPachrukhi, Bihar
26SVSiwan Junction (4)  16:30-16:35-5m--21605.25370mNERSiwan, Bihar
26.1ZRDEJiradei (2)  16:47-16:47-  21615.5 5369mNERSiwan, Bihar
26.2KYWKarchhue  16:53-16:53-  21621.0 5370mNERState Highway 47, Bihar
26.3MWMairwa (2)  16:59-16:59-  21626.5 5373mNERMairwa, Bihar
26.4BTKBankata (2)X  17:07-17:07-  21633.0 5373mNERDeoria, Uttar Pradesh
26.5BHTRBhatpar Rani (2)  17:16-17:16-  21641.1 5373mNERDeoria, Uttar Pradesh
26.6NNPRNonapar  17:25-17:25-  21649.2 5376mNERSalempur Mairwa Rd, Uttar Pradesh
26.7BTTBhatni Junction (5)X  17:30-17:30-  21653.9 5373mNERDeoria, Uttar Pradesh
26.8NRANunkhar (2)  17:39-17:39-  21661.2 5375mNERBaikunthpur, Uttar Pradesh
26.9AHLRAhalyapur  17:47-17:47-  21668.6 5381mNERDeoria, Uttar Pradesh
27DEOSDeoria Sadar (3)X  17:49 17:54-17:50 17:55-1m--21674.73179mNERDeoria- 274001, Uttar Pradesh
27.1BALRBaitalpur (2)  18:08-18:08-  21681.3 3182mNERPin- 274201, Uttar Pradesh
27.2GBGauri Bazar (2)  18:24-18:24-  21689.7 3182mNERDistrict Deoria- Pincode- 274202, Uttar Pradesh
27.3CCChauri Chaura (2)  18:43-18:43-  21699.4 3184mNERGorakhpur- PinCode:- 273201, Uttar Pradesh
27.4SANRSardarnagarX  18:53-18:53-  21704.7 3182mNERGorakhpur-Deoria Road, Uttar Pradesh
27.5KHMKusmhi (2)  19:05-19:05-  21710.7 3183mNERGorakhpur, Uttar Pradesh
27.6GKCGorakhpur Cantt. (3)  19:23-19:23-  21720.1 3185mNERGorakhpur-273001, Uttar Pradesh
28GKPGorakhpur Junction (10)  19:30-19:45-15m121723.84384mNERGorakhpur 273001, Uttar Pradesh
28.1DMGDomingarh (2)X  19:51-19:51-  21727.9 4380mNERGorakhpur- 273004, Uttar Pradesh
28.2JTBJagatbela (2)  20:00-20:00-  21734.6 4378mNERDistt Gorakhpur- 273015, Uttar Pradesh
28.3SWASahjanwa (2)  20:09-20:09-  21741.0 4380mNERGorakhpur - 273209, Uttar Pradesh
28.4SIPRSihapar Halt (2)X  20:16-20:16-  21745.9 4380mNERGorakhpur, Uttar Pradesh
28.5MHHMaghar (3)  20:20-20:20-  21749.2 4383mNERNH 28. Distt- SantKabirNagar- 272173, Uttar Pradesh
28.6KLDKhalilabad (3)X  20:32-20:32-  21757.7 4386mNERKhalilabad- 272175, Uttar Pradesh
28.7CRVChureb (2)  20:43-20:43-  21765.5 4388mNERDistrict- Khalilabad, Uttar Pradesh
28.8MNDMunderwa (2)O  20:53-20:53-  21773.0 4389mNERNational Highway 28, Uttar Pradesh
28.9ORWOrwara (2)  21:02-21:02-  21779.6 4391mNERDistrict- BASTI, Uttar Pradesh
28.10BSTBasti (4)  21:13-21:13-  21787.3 4390mNERBasti 272001, Uttar Pradesh
28.11GOVRGovindnagar (2)  21:22-21:22-  21793.6 4393mNERPin-272002, Uttar Pradesh
28.12THTinich (2)X  21:33-21:33-  21802.0 4395mNERDistrict- Basti, Uttar Pradesh
28.13GAURGaur (2)  21:44-21:44-  21810.2 4396mNERDistrict-Basti, Uttar Pradesh
28.14BVBabhnan (2)  21:55-21:55-  21818.1 43101mNERDistrict- Basti, Uttar Pradesh
28.15PATIParsa Tiwari (2)  22:03-22:03-  21823.6 4398mNERChhapaiya Rd, Uttar Pradesh
28.16BNGYBahman Jyotia (2)  22:06-22:06-  21826.2 43100mNERGonda, Uttar Pradesh
28.17SNCSwami Narayan Chhapia (2)  22:11-22:11-  21829.4 43100mNERS Narayan Chpla, Uttar Pradesh
28.18MSWMaskanwa (2)  22:17-22:17-  21833.8 43103mNERChhapaiya Rd, Uttar Pradesh
28.19LKNRLakhpat Nagar (2)  22:29-22:29-  21842.6 43102mNERMankapur, Uttar Pradesh
28.20MURMankapur Junction (5)  22:36-22:36-  21847.8 43104mNERDistrict Gonda, Uttar Pradesh
28.21JLHIJhilahi (2)  22:45-22:45-  21854.4 43102mNERSH 9, Uttar Pradesh
28.22MOTGMotiganj  22:54-22:54-  21860.7 43111mNERGonda, Uttar Pradesh
28.23BRCKBarua Chak (2)X  23:04-23:04-  21868.0 43107mNERBaruachak, Uttar Pradesh
29GDGonda Junction (3)  23:10 23:15-23:20-10 5m121875.746110mNERGonda 271001, Uttar Pradesh
29.1GDKGonda Kachahri (3)  23:26-23:26-  21880.6 46110mNERGonda, Uttar Pradesh
29.2KTHLKathola (2)  23:36-23:36-  21887.5 46106mNERGonda, Uttar Pradesh
29.3MIRMaijapur (2)X  23:43-23:43-  21893.3 46108mNERGonda, Uttar Pradesh
29.4KSRKasturi (2)  23:50-23:50-  21898.8 46108mNERkasturi Gonda, Uttar Pradesh
29.5CLJColonelGanj (2)  23:58-23:58-  21904.6 46108mNERGonda, Uttar Pradesh
29.6SUJSarju (2)X  00:08-00:08-  31912.3 46109mNERGonda, Uttar Pradesh
29.7JLDJarwal Road (2)  00:21-00:21-  31921.8 46112mNERBehraich, Uttar Pradesh
29.8GHTGhaghara Ghat (2)  00:26-00:26-  31926.0 46107mNERBahraich, Uttar Pradesh
29.9CKGChowka Ghat (2)X  00:33-00:33-  31931.6 46107mNERBarabanki, Uttar Pradesh
29.10BUWBurhwal Junction (3)  00:42-00:42-  31937.9 46119mNERBarabanki, Uttar Pradesh
29.11BURBindaura (2)  00:54-00:54-  31947.5 46125mNERbarabanki, Uttar Pradesh
29.12RFRRafinagar (2)  00:59-00:59-  31950.8 46124mNERbarabanki, Uttar Pradesh
29.13JBRJahangirabad Rj (2)  01:07-01:07-  31956.8 46125mNERJahangirabad, Uttar Pradesh
29.14BBKBarabanki Junction (4)X  01:17-01:17-  31965.0 46122mNRPin-225001, Uttar Pradesh
29.15SFHSafedabad (3)X  01:27-01:27-  31972.6 46120mNRBarabanki, Uttar Pradesh
29.16JRRJugaur (1)  01:32-01:32-  31976.0 46123mNRCanal Rd, Uttar Pradesh
29.17MLMalhaur (3)  01:39-01:39-  31981.6 46121mNRLucknow, Uttar Pradesh
30LKOLucknow Charbagh (9)X  01:50 01:55-02:00 02:05-10m531993.665123mNR226004, Uttar Pradesh
30.1LNWTLucknow WestO  02:07-02:07-  31995.2 65123mNRLucknow, Uttar Pradesh
30.2AMGAlamnagar (3)X  02:11-02:11-  32000.6 65126mNRLucknow, Uttar Pradesh
30.3KKJKakori (3)O  02:18-02:18-  32008.1 65129mNRSH 25, Uttar Pradesh
30.4MLDMalihabad  02:27-02:27-  32017.8 65130mNRMalihabad, Uttar Pradesh
30.5DILDilawarnagarX  02:33-02:33-  32023.4 65133mNRSH 25, Uttar Pradesh
30.6RBDRahimabad  02:40-02:40-  32031.0 65132mNRSH 25, Uttar Pradesh
30.7SANSandila (3)  02:50-02:50-  32042.1 65132mNRSandila, Uttar Pradesh
30.8UTAUmar TaliX  02:55-02:55-  32047.3 65135mNRHardoi, Uttar Pradesh
30.9DLQDalelnagar  03:00-03:00-  32053.7 65136mNRSH 25, Uttar Pradesh
30.10BLMBalamu Junction (4)X  03:08-03:08-  32062.4 65139mNRBalamau, Uttar Pradesh
30.11BGHBaghauliX  03:17-03:17-  32071.1 65141mNRsharda nehar, Uttar Pradesh
30.12MSTMasit  03:23-03:23-  32078.1 65141mNRSH 25, Uttar Pradesh
30.13KARKarna  03:30-03:30-  32085.6 65143mNRHardoi, Uttar Pradesh
30.14HRIHardoi (5)X  03:39-03:39-  32095.4 65146mNRHardoi, Uttar Pradesh
30.15KUFKaurhaX  03:47-03:47-  32103.8 65148mNRSH 25, Uttar Pradesh
30.16BEGBehtagokulX  03:55-03:55-  32112.7 65152mNRBehtagokul, Uttar Pradesh
30.17TDPTodarpur  04:01-04:01-  32119.1 65147mNRSH 25, Uttar Pradesh
30.18SHRMSharmaX  04:03-04:03-  32121.7 65150mNRSH 25, Uttar Pradesh
30.19AJIAnjhi Shahabad  04:09-04:09-  32127.6 65148mNRAnjhi Shahabad, Uttar Pradesh
30.20AIGAlgawanX  04:14-04:14-  32133.9 65152mNRAlgawan, Uttar Pradesh
30.21KHKahiliya  04:22-04:22-  32142.4 65152mNRSH 25, Uttar Pradesh
30.22PRPMPt Ram Prasad BismilXO  04:26-04:26-  32146.8 65154mNRState Highway 25, Uttar Pradesh
30.23ROZARoza Junction (4)O  04:30-04:30-  32151.0 65156mNRShahjahanpur, Uttar Pradesh
30.24SXKShahjahanpur Court  04:36-04:36-  32157.4 65160mNRShahjahanpur, Uttar Pradesh
30.25SPNShahjahanpur Junction (3)XO  04:37-04:37-  32158.4 65156mNRShahjahanpur, Uttar Pradesh
30.26BTRABanthra  04:45-04:45-  32166.8 65154mNRNH 24, Uttar Pradesh
30.27BHDHBahadurpur HaltX  04:50-04:50-  32172.4 65154mNRNH 24, Uttar Pradesh
30.28TLHTilhar  04:54-04:54-  32176.6 65163mNRTilhar, Uttar Pradesh
30.29MILAMilakpur Halt  04:57-04:57-  32180.2 65158mNRDhanela, Uttar Pradesh
30.30MKMiranpur Katra  05:03-05:03-  32186.3 65162mNRShahjahanpur, Uttar Pradesh
30.31KSRKKasrak HaltXO  05:03-05:03-  32186.5 65162mNRKatra, Uttar Pradesh
30.32BLPUBilpurX  05:09-05:09-  32193.5 65161mNRFatehganj, Uttar Pradesh
30.33TSATisuaX  05:16-05:16-  32200.5 65165mNRNational Highway 24, Uttar Pradesh
30.34PMRPitambarpur  05:24-05:24-  32209.0 65171mNRPitambarpur, Uttar Pradesh
30.35RYSRasuriya  05:32-05:32-  32218.5 65174mNRNH 24, Uttar Pradesh
30.36CHTIChanehti Junction  05:39-05:39-  32225.1 65168mNRBareilly, Uttar Pradesh
31BEBareilly Junction (4)X  05:45 05:42-05:50 05:47-5m--32228.950174mNRBareilly, Uttar Pradesh
31.1BCBareilly City (4)  05:50-05:50-  32231.4 50171mNERBareilly, Uttar Pradesh
31.2CBJClutterbuckGanj  05:56-05:56-  32236.8 50172mNRBareilly, Uttar Pradesh
31.3PKRAParsa KheraX  06:02-06:02-  32241.8 50170mNRNH 24, Uttar Pradesh
31.4BTOBhitaura  06:09-06:09-  32247.1 50173mNRFatehganj Pashchimi, Uttar Pradesh
31.5DANDhanetaX  06:16-06:16-  32253.4 50174mNRNH 24, Uttar Pradesh
31.6NRSNagaria Sadat  06:25-06:25-  32260.5 50177mNRNagaria Sadat, Uttar Pradesh
31.7MILMilakO  06:35-06:35-  32268.8 50180mNRMilak, Uttar Pradesh
31.8DUNDuganpur  06:42-06:42-  32274.7 50180mNRNH 24, Uttar Pradesh
31.9DAMDhamoraXO  06:48-06:48-  32280.1 50183mNRNH 24, Uttar Pradesh
31.10SARShahzad NagarX  06:55-06:55-  32285.5 50186mNRNH 24, Uttar Pradesh
31.11RMURampur Junction (3)O  07:02-07:02-  32291.9 50190mNRRampur, Uttar Pradesh
31.12MPHMundha PandeX  07:13-07:13-  32300.6 50191mNRNH 24, Uttar Pradesh
31.13DLPDalpatpur  07:20-07:20-  32307.0 50195mNRNH-24, Uttar Pradesh
31.14KGFEKathghar East  07:29-07:29-  32313.9 50194mNRJama Masjid Bridge Road, Uttar Pradesh
31.15KGFRKathghar Right Bank  07:29-07:29-  32314.2 50199mNRMoradabad, Uttar Pradesh
31.16KGFKathghar  07:31-07:31-  32315.5 50199mNRMoradabad, Uttar Pradesh
32MBMoradabad Junction (7)  07:35-07:45-10m--32319.259201mNRMoradabad, Uttar Pradesh
32.1MBWCMoradabad West  07:46-07:46-  32320.0 59195mNRMoradabad West, Uttar Pradesh
32.2HRHHarthala  07:50-07:50-  32324.6 59206mNRMoradabad, Uttar Pradesh
32.3AWPAghwanpur  07:56-07:56-  32330.3 59212mNRMoradabad, Uttar Pradesh
32.4MTBMatlabpur  08:06-08:06-  32340.0 59216mNRMoradabad, Uttar Pradesh
32.5KNTKanthX  08:15-08:15-  32348.6 59221mNRKanth, Uttar Pradesh
32.6MWEMewa Nawada  08:21-08:21-  32355.1 59221mNRSahaspur, Uttar Pradesh
32.7SEOSeohara  08:31-08:31-  32365.2 59224mNRSeohara, Uttar Pradesh
32.8CAJChakraj Mal  08:38-08:38-  32371.9 59229mNRNagina, Uttar Pradesh
32.9DPRDhampurX  08:45-08:45-  32378.9 59236mNRDhampur, Uttar Pradesh
32.10HBWHabibwalaX  08:51-08:51-  32384.2 59239mNRNagina, Uttar Pradesh
32.11PNIPuraini  08:56-08:56-  32389.9 59246mNRDhampur, Uttar Pradesh
32.12NGGNagina (3)  09:02-09:02-  32395.7 59247mNRNagina, Uttar Pradesh
32.13BEKBundki  09:12-09:12-  32405.5 59255mNRNagina, Uttar Pradesh
32.14MSDRMurshadpurO  09:16-09:16-  32409.1 59258mNRNagina, Uttar Pradesh
32.15NBDNajibabad Junction (3)O  09:25-09:25-  32418.2 59269mNRNajibabad, Uttar Pradesh
32.16FZLFazalpur (2)  09:36-09:36-  32429.2 59256mNRState Highway 49, Uttar Pradesh
32.17CNKChandok (2)X  09:43-09:43-  32436.1 59257mNRChandok, Uttar Pradesh
32.18BLWBalawali (2)  09:50-09:50-  32442.9 59242mNRNational Highway 119, Uttar Pradesh
32.19RSIRaisi  09:56-09:56-  32448.6 59231mNRLaksar, Uttarakhand
32.20LRJLaksar Junction (4)X  10:07-10:07-  32460.1 59238mNRLaksar, Uttarakhand
32.21LRJCLaksar North Cabin  10:09-10:09-  32462.1 59238mNRMain Bazar Road, Uttarakhand
32.22DSNIDausni (2)  10:12-10:12-  32465.1 59244mNRLaksar, Uttarakhand
32.23LDRLandaura (2)  10:17-10:17-  32470.0 59261mNRHaridwar, Uttarakhand
32.24DNRADhandhera (2)  10:22-10:22-  32475.1 59267mNRRoorkee - 247667, Uttarakhand
32.25RKRoorkee (3)X  10:25-10:25-  32477.9 59264mNRRoorkee - 247667, Uttarakhand
32.26IQBIqbalpurX  10:33-10:33-  32485.3 59267mNRNational Highway 73, Uttar Pradesh
32.27CDLChodiala  10:39-10:39-  32491.9 59270mNRMDR 163W, Uttar Pradesh
32.28SNKESunehti Kharkhari (2)O  10:45-10:45-  32497.5 59216mNRSunehti Kharkhr, Uttar Pradesh
32.29BAEBaliakheri  10:50-10:50-  32502.6 59274mNRSaharanpur, Uttar Pradesh
32.30HNCHindan Cabin  10:54-10:54-  32506.4 59276mNRMDR 163W, Uttar Pradesh
33SRESaharanpur Junction (6)O  10:40 11:00-10:50 11:10-10m432512.661276mNRSaharanpur, Uttar Pradesh
33.1PKYPilkhani (2)X  11:18-11:18-  32520.3 61277mNRSaharanpur, Uttar Pradesh
33.2SSWSarsawa (2)  11:23-11:23-  32525.8 61269mNRSaharanpur, Uttar Pradesh
33.3KNZKalanour (2)X  11:33-11:33-  32536.2 61272mNRNational Highway 73, Haryana
33.4JUDYamunanagar-Jagadhri (3)X  11:40-11:40-  32542.7 61275mNRYamunanagar, Haryana
33.5JUDWJagadhri Workshop (2)  11:45-11:45-  32547.7 61280mNRRailway Workshop Road, Haryana
33.6DZPDarazpur (2)  11:49-11:49-  32552.4 61276mNRYamunanagar, Haryana
33.7MFBMustafabad (2)X  11:57-11:57-  32560.1 61281mNRNational Highway 73, Haryana
33.8RAABarara (2)X  12:06-12:06-  32568.9 61279mNRBarara, Haryana
33.9TDWTandwal (2)  12:11-12:11-  32574.3 61279mNRState Highway 31, Haryana
33.10KESKesri (2)X  12:17-12:17-  32580.5 61275mNRAmbala, Haryana
33.11DOKYDukheri (2)  12:23-12:23-  32586.4 61275mNRDevsthali Rd, Haryana
34UMBAmbala Cantt. Junction (7)X  12:05 12:30-12:10 12:42-5 12m132593.750278mNRAmbala 133001, Haryana
34.1DKTDhulkotX  12:51-12:51-  32601.6 50275mNRAmbala City, Haryana
34.2LLULalru  13:03-13:03-  32611.7 50282mNRLalru, Punjab
34.3DHPRDappar (2)  13:22-13:22-  32627.2 50299mNRNational Highway 22, Punjab
34.4GHGGhagghar (1)  13:24-13:24-  32629.2 50301mNRnear silver city. distt. mohali, Punjab
35CDGChandigarh Junction (5)  13:10 13:35--432638.3-334mNRDarua, Chandigarh
Scroll to Top
Scroll to Bottom